Location: LewisvilleTX
(33.0462°N, 96.9942°W)
Time: 20:07:14
(UTC+00:00)

Envisat - Visible Passes

Search period start: 25 September 2022 00:00
Search period end: 05 October 2022 00:00
Orbit: 764 x 765 km, 98.2° (Epoch: 25 September)

Date Brightness Start Highest point End Pass type
(mag) Time Alt. Az. Time Alt. Az. Time Alt. Az.
25 Sep 3.0 10:42:41 10° NNE 10:47:47 82° ESE 10:52:51 10° S visible
26 Sep 4.6 10:06:13 10° NNE 10:10:46 33° E 10:15:18 10° SSE visible
26 Sep 4.1 11:45:36 10° NNW 11:49:32 23° WNW 11:53:28 10° WSW visible
27 Sep 5.8 09:31:09 10° ENE 09:33:34 13° E 09:36:00 10° ESE visible
27 Sep 3.1 11:07:53 10° N 11:12:50 54° WNW 11:17:45 10° SSW visible
28 Sep 3.4 10:30:54 10° NNE 10:35:56 62° E 10:40:57 10° S visible
29 Sep 5.0 09:54:43 10° NE 09:58:52 25° E 10:03:00 10° SSE visible
29 Sep 3.8 11:33:25 10° N 11:37:47 30° WNW 11:42:08 10° SW visible
30 Sep 2.9 10:55:57 10° N 11:01:01 72° WNW 11:06:04 10° SSW visible
01 Oct 3.9 10:19:12 10° NNE 10:24:04 46° E 10:28:55 10° S visible
02 Oct 5.4 09:43:22 10° NE 09:46:57 19° E 09:50:29 10° SE visible
02 Oct 3.4 11:21:20 10° N 11:26:00 39° WNW 11:30:41 10° SW visible
03 Oct 2.9 10:44:05 10° NNE 10:49:11 86° ESE 10:54:16 10° SSW visible
04 Oct 4.5 10:07:33 10° NNE 10:12:11 35° E 10:16:46 10° SSE visible
04 Oct 4.2 11:47:05 10° NNW 11:50:55 22° WNW 11:54:44 10° WSW visible
